This is the latest recevied weather packets stored in our database for station/object N2PUI. If no packets are shown the sender has not sent any weather packets the latest 10 day(s).
| Time | Temp. | Humidity | Pressure | Rain* | Wind** | Luminosity | Snow |
|---|---|---|---|---|---|---|---|
| 1778000072 | 24.44° C | 45% | 1005.9 hPa | 0 mm | - | 471 W/m² | - |
| 1777999762 | 24.44° C | 45% | 1005.9 hPa | 0 mm | - | 350 W/m² | - |
| 1777999459 | 24.44° C | 47% | 1006.1 hPa | 0 mm | - | 333 W/m² | - |
| 1777999157 | 24.44° C | 43% | 1006.2 hPa | 0 mm | - | 347 W/m² | - |
| 1777998856 | 24.44° C | 43% | 1006.1 hPa | 0 mm | - | 577 W/m² | - |
| 1777998555 | 25° C | 45% | 1006.1 hPa | 0 mm | - | 425 W/m² | - |
| 1777998250 | 24.44° C | 45% | 1006.3 hPa | 0 mm | - | 509 W/m² | - |
| 1777997947 | 23.89° C | 45% | 1006.6 hPa | 0 mm | - | 473 W/m² | - |
| 1777997644 | 23.89° C | 46% | 1006.4 hPa | 0 mm | - | 530 W/m² | - |
| 1777997341 | 23.89° C | 46% | 1006.4 hPa | 0 mm | - | 369 W/m² | - |
| 1777997039 | 23.89° C | 46% | 1006.7 hPa | 0 mm | - | 410 W/m² | - |
| 1777996736 | 24.44° C | 45% | 1006.8 hPa | 0 mm | - | 350 W/m² | - |
| 1777996431 | 24.44° C | 47% | 1006.8 hPa | 0 mm | - | 391 W/m² | - |
| 1777996128 | 24.44° C | 45% | 1006.7 hPa | 0 mm | - | 327 W/m² | - |
| 1777995824 | 23.89° C | 46% | 1007 hPa | 0 mm | - | 809 W/m² | - |
| 1777995521 | 24.44° C | 46% | 1006.9 hPa | 0 mm | - | 896 W/m² | - |
| 1777995218 | 25° C | 45% | 1006.8 hPa | 0 mm | - | 806 W/m² | - |
| 1777994914 | 23.89° C | 46% | 1006.8 hPa | 0 mm | - | 670 W/m² | - |
| 1777994611 | 24.44° C | 45% | 1006.7 hPa | 0 mm | - | 690 W/m² | - |
| 1777994306 | 23.33° C | 49% | 1007 hPa | 0 mm | - | 718 W/m² | - |
| 1777994003 | 23.33° C | 47% | 1006.7 hPa | 0 mm | - | 626 W/m² | - |
| 1777993700 | 23.89° C | 45% | 1006.3 hPa | 0 mm | - | 690 W/m² | - |
| 1777993397 | 23.89° C | 47% | 1006.4 hPa | 0 mm | - | 728 W/m² | - |
| 1777993091 | 23.33° C | 47% | 1006.4 hPa | 0 mm | - | 743 W/m² | - |
| 1777992790 | 23.89° C | 47% | 1006.6 hPa | 0 mm | - | 767 W/m² | - |
* Rain latest hour (hover to see other rain measurements)
** Current wind speed in m/s (hover to see current wind gust speed)